Flag for Canada Weather past 2 weeks in Barrie, Ontario, Canada

Now
54 °F

Overcast.


Feels Like: 54 °F
Forecast: 53 / 70 °F
Wind: 2 mph from South

Location: Borden

Current Time: Jul 31, 2014 at 5:44:40 AM

Latest Report: Jul 31, 2014 at 5:00 AM


Visibility: 9 mi

Pressure: 29.96 "Hg

Humidity: 100%

Dew point: 54 °F

Location of BarrieLocation

Historic Weather in Barrie — Graph

°F

Barrie temperature yesterday

Maximum temperature yesterday: 72 °F (at 1:00 PM)
Minimum temperature yesterday: 48 °F (at 5:01 AM)
Average temperature yesterday: 59 °F

Past Weeks' High & Low Weather Summary

 TemperatureHumidityPressure
High86 °F (Jul 22, 1:00 PM)100% (Jul 22, 2:01 AM)30.25 "Hg (Jul 22, 2:01 AM)
Low43 °F (Jul 17, 3:00 AM)40% (Jul 24, 5:00 PM)29.64 "Hg (Jul 27, 7:00 PM)
Average64 °F77%29.97 "Hg
* Reported Jul 16 4:00 AM — Jul 31 4:01 AM, Barrie, Weather by CustomWeather, © 2014

Note: Actual official high and low records may vary slightly from our data, if they occured in-between our weather recording intervals... More about our weather records

Advertising

Barrie weather history for previous 24 hours

 ConditionsComfort  
Time TempWeatherWind HumidityBarometerVisibility
4:01 AM
Jul 31
54 °FLight rain. Passing clouds.2 mph100%29.97 "Hg9 mi
3:00 AM52 °FPassing clouds.5 mph100%29.99 "Hg9 mi
2:00 AM50 °FClear.No wind100%29.98 "Hg8 mi
1:55 AM48 °FClear.No wind100%29.98 "Hg8 mi
1:01 AM50 °FClear.2 mph94%29.97 "Hg1 mi
12:00 AM52 °FClear.2 mph100%29.99 "Hg9 mi
11:00 PM
Jul 30
54 °FClear.3 mph100%29.99 "Hg9 mi
10:00 PM55 °FClear.3 mph94%29.99 "Hg9 mi
9:00 PM57 °FSunny.3 mph94%29.97 "Hg9 mi
8:00 PM63 °FSunny.2 mph77%29.96 "Hg9 mi
7:00 PM66 °FPassing clouds.7 mph64%29.96 "Hg9 mi
6:00 PM64 °FPassing clouds.9 mph68%29.95 "Hg9 mi
5:00 PM66 °FPartly sunny.9 mph64%29.95 "Hg9 mi
4:00 PM70 °FScattered clouds.6 mph60%29.94 "Hg9 mi
3:00 PM70 °FPartly sunny.7 mph60%29.93 "Hg9 mi
2:00 PM70 °FPartly sunny.10 mph60%29.93 "Hg9 mi
1:00 PM72 °FPassing clouds.9 mph47%29.94 "Hg9 mi
12:00 PM68 °FBroken clouds.2 mph60%29.95 "Hg9 mi
11:00 AM68 °FMore clouds than sun.6 mph69%29.96 "Hg9 mi
10:00 AM63 °FPartly sunny.5 mph83%29.96 "Hg9 mi
9:00 AM61 °FPartly sunny.No wind88%29.96 "Hg9 mi
8:00 AM55 °FSunny.3 mph100%29.96 "Hg9 mi
7:03 AM48 °FClear.No wind100%29.94 "Hg3 mi
6:00 AM48 °FPassing clouds.No wind100%29.93 "Hg1 mi
5:01 AM48 °FPassing clouds.No wind100%29.91 "Hg0 mi
Weather by CustomWeather, © 2014

See weather overviewHow to use our weather pages